Regional Weather Roundup
Issued by NWS Charleston, WV

Home | Current Version | Previous Version | Graphics & Text | Print | Product List | Glossary On
Versions: 1 2 3 4 5 6 7 8 9 10 11 12 13 14 15 16 17 18 19 20 21 22 23 24 25 26 27 28 29 30 31 32 33 34 35 36 37 38 39 40 41 42 43 44 45 46 47 48 49
000
ASUS41 KRLX 220610
RWRRLX
West Virginia Regional Weather Roundup
National Weather Service Charleston WV
200 AM EDT MON SEP 22 2014

Note: "fair" indicates few or no clouds below 12,000 feet with no
significant weather and/or obstructions to visibility.

WVZ003-220700-
Northern Panhandle of West Virginia

CITY           SKY/WX    TMP DP  RH WIND       PRES   REMARKS
WHEELING       CLOUDY    54  49  83 NW12G23   29.96R
$$

WVZ009-220700-
Northwest West Virginia

CITY           SKY/WX    TMP DP  RH WIND       PRES   REMARKS
PARKERSBURG    CLOUDY    58  50  75 W10       30.00S
$$

WVZ006-220700-
Western West Virginia

CITY           SKY/WX    TMP DP  RH WIND       PRES   REMARKS
HUNTINGTON     MOCLDY    58  49  72 NW7       30.03R
$$

WVZ015-220700-
West Central West Virginia

CITY           SKY/WX    TMP DP  RH WIND       PRES   REMARKS
CHARLESTON     CLEAR     59  49  69 NW9G20    30.01R
$$

WVZ031-220700-
North Central West Virginia

CITY           SKY/WX    TMP DP  RH WIND       PRES   REMARKS
CLARKSBURG     CLOUDY    57  49  74 W7        29.95R
MORGANTOWN     CLOUDY    60  48  64 SW7       29.94R
$$

WVZ035-042-045-220700-
South Central West Virginia

CITY           SKY/WX    TMP DP  RH WIND       PRES   REMARKS
BECKLEY        PTCLDY    56  46  69 NW9       30.02R
BLUEFIELD      CLOUDY    59  46  62 NW6       30.03S
LEWISBURG      CLEAR     57  46  65 CALM      29.98S
$$

WVZ047-220700-
Northern Mountains of West Virginia

CITY           SKY/WX    TMP DP  RH WIND       PRES   REMARKS
ELKINS         PTCLDY    56  47  71 W6        29.96S
$$

WVZ052-220700-
Eastern Panhandle of West Virginia

CITY           SKY/WX    TMP DP  RH WIND       PRES   REMARKS
MARTINSBURG    CLEAR     66  44  45 W18G28    29.85R
PETERSBURG     PTCLDY    64  44  48 W10       29.91R
$$


USA.gov is the U.S. government's official web portal to all federal, state and local government web resources and services.